When you browse on this site, cookies collect data to enhance your experience and personalize the content and advertising you see.
Visit our Privacy Policy to learn more. By continuing to use the site, you agree to this use of cookies and data.
  • In Romania
  • List of Countries
  • For 7 days
  • Water Temperature
  • Satellite Maps
  • Weather Map
  • Weather Widgets
  • user-avatar
    Login

    Hourly Weather Gulaothi

    Today, 17 July, Wednesday

    Time Temperature Precipitation Wind Pressure Humidity
    00:00 +29°C° 1.9 mm 1 mps 732 mmHg 73%
    01:00 +28°C° 1.9 mm 1 mps 732 mmHg 77%
    02:00 +28°C° 1.9 mm 1 mps 731 mmHg 80%
    03:00 +28°C° 1.7 mm 1 mps 732 mmHg 81%
    04:00 +28°C° 1.7 mm 1 mps 732 mmHg 83%
    05:00 +27°C° 0 mm 1 mps 732 mmHg 80%
    06:00 +28°C° 1.1 mm 1 mps 732 mmHg 77%
    07:00 +29°C° 1.1 mm 1 mps 732 mmHg 73%
    08:00 +30°C° 1.1 mm 1 mps 732 mmHg 70%
    09:00 +32°C° 0 mm 1 mps 733 mmHg 63%
    10:00 +34°C° 0 mm 1 mps 733 mmHg 56%
    11:00 +36°C° 0 mm 1 mps 733 mmHg 50%
    12:00 +37°C° 0 mm 1 mps 732 mmHg 46%
    13:00 +38°C° 0 mm 2 mps 732 mmHg 42%
    14:00 +39°C° 0 mm 2 mps 731 mmHg 38%
    15:00 +39°C° 0 mm 2 mps 731 mmHg 40%
    16:00 +38°C° 0 mm 2 mps 731 mmHg 42%
    17:00 +38°C° 0 mm 2 mps 730 mmHg 43%
    18:00 +36°C° 0.1 mm 3 mps 731 mmHg 50%
    19:00 +34°C° 0.1 mm 3 mps 731 mmHg 56%
    20:00 +33°C° 0.1 mm 4 mps 731 mmHg 63%
    21:00 +33°C° 0 mm 3 mps 731 mmHg 62%
    22:00 +32°C° 0 mm 1 mps 731 mmHg 62%
    23:00 +30°C° 0 mm 0 mps 731 mmHg 61%

    Tomorrow, 18 July, Thursday

    Time Temperature Precipitation Wind Pressure Humidity
    00:00 +30°C° 0 mm 0 mps 731 mmHg 62%
    01:00 +31°C° 0 mm 1 mps 731 mmHg 62%
    02:00 +31°C° 0 mm 1 mps 731 mmHg 63%
    03:00 +31°C° 0.2 mm 1 mps 731 mmHg 64%
    04:00 +31°C° 0.2 mm 1 mps 731 mmHg 66%
    05:00 +28°C° 0.2 mm 0 mps 731 mmHg 67%
    06:00 +31°C° 1 mm 1 mps 731 mmHg 65%
    07:00 +32°C° 1 mm 1 mps 731 mmHg 62%
    08:00 +33°C° 1 mm 1 mps 732 mmHg 60%
    09:00 +35°C° 0.7 mm 2 mps 732 mmHg 56%
    10:00 +36°C° 0.7 mm 2 mps 732 mmHg 53%
    11:00 +37°C° 0.7 mm 2 mps 732 mmHg 50%
    12:00 +37°C° 0.1 mm 2 mps 731 mmHg 49%
    13:00 +38°C° 0.1 mm 2 mps 731 mmHg 48%
    14:00 +38°C° 0.1 mm 3 mps 731 mmHg 47%
    15:00 +37°C° 0.1 mm 2 mps 730 mmHg 49%
    16:00 +37°C° 0.1 mm 2 mps 730 mmHg 51%
    17:00 +36°C° 0.1 mm 2 mps 729 mmHg 53%
    18:00 +36°C° 0.1 mm 2 mps 730 mmHg 55%
    19:00 +34°C° 0.1 mm 1 mps 730 mmHg 56%
    20:00 +33°C° 0.1 mm 1 mps 730 mmHg 58%
    21:00 +33°C° 0.2 mm 1 mps 730 mmHg 60%
    22:00 +32°C° 0.2 mm 1 mps 730 mmHg 63%
    23:00 +32°C° 0.2 mm 1 mps 730 mmHg 65%

    Day after tomorrow, 19 July, Friday

    Time Temperature Precipitation Wind Pressure Humidity
    00:00 +31°C° 0.1 mm 1 mps 730 mmHg 67%
    01:00 +31°C° 0.1 mm 1 mps 730 mmHg 70%
    02:00 +31°C° 0.1 mm 1 mps 730 mmHg 72%
    03:00 +31°C° 0 mm 1 mps 730 mmHg 72%
    04:00 +30°C° 0 mm 1 mps 730 mmHg 73%
    05:00 +30°C° 0 mm 1 mps 731 mmHg 74%
    06:00 +31°C° 0.2 mm 1 mps 731 mmHg 69%
    07:00 +33°C° 0.2 mm 1 mps 732 mmHg 64%
    08:00 +34°C° 0.2 mm 1 mps 732 mmHg 60%
    09:00 +36°C° 0.3 mm 2 mps 732 mmHg 55%
    10:00 +37°C° 0.3 mm 2 mps 732 mmHg 50%
    11:00 +39°C° 0.3 mm 3 mps 732 mmHg 45%
    12:00 +39°C° 0 mm 3 mps 732 mmHg 44%
    13:00 +39°C° 0 mm 3 mps 731 mmHg 43%
    14:00 +40°C° 0 mm 3 mps 731 mmHg 42%
    15:00 +39°C° 0 mm 3 mps 730 mmHg 44%
    16:00 +39°C° 0 mm 3 mps 730 mmHg 45%
    17:00 +39°C° 0 mm 3 mps 730 mmHg 47%
    18:00 +38°C° 0 mm 3 mps 730 mmHg 49%
    19:00 +36°C° 0 mm 2 mps 730 mmHg 52%
    20:00 +34°C° 0 mm 1 mps 730 mmHg 55%
    21:00 +34°C° 0.1 mm 1 mps 730 mmHg 55%
    22:00 +34°C° 0.1 mm 1 mps 730 mmHg 56%
    23:00 +34°C° 0.1 mm 1 mps 731 mmHg 57%

    20 July, Saturday

    Time Temperature Precipitation Wind Pressure Humidity
    00:00 +33°C° 0.3 mm 1 mps 730 mmHg 59%
    01:00 +33°C° 0.3 mm 1 mps 730 mmHg 61%
    02:00 +33°C° 0.3 mm 1 mps 730 mmHg 63%
    03:00 +32°C° 0.1 mm 1 mps 730 mmHg 64%
    04:00 +32°C° 0.1 mm 1 mps 730 mmHg 65%
    05:00 +32°C° 0.1 mm 1 mps 731 mmHg 66%
    06:00 +33°C° 0 mm 1 mps 731 mmHg 62%
    07:00 +35°C° 0 mm 1 mps 731 mmHg 58%
    08:00 +36°C° 0 mm 1 mps 732 mmHg 54%
    09:00 +37°C° 0 mm 1 mps 732 mmHg 49%
    10:00 +40°C° 0 mm 2 mps 732 mmHg 44%
    11:00 +41°C° 0 mm 2 mps 732 mmHg 39%
    12:00 +41°C° 0 mm 2 mps 731 mmHg 39%
    13:00 +41°C° 0 mm 2 mps 731 mmHg 39%
    14:00 +41°C° 0 mm 2 mps 730 mmHg 38%
    15:00 +41°C° 0.1 mm 2 mps 730 mmHg 39%
    16:00 +41°C° 0.1 mm 2 mps 730 mmHg 40%
    17:00 +40°C° 0.1 mm 2 mps 729 mmHg 40%
    18:00 +39°C° 0.2 mm 2 mps 729 mmHg 43%
    19:00 +38°C° 0.2 mm 2 mps 729 mmHg 46%
    20:00 +37°C° 0.2 mm 2 mps 729 mmHg 49%
    21:00 +37°C° 0 mm 2 mps 729 mmHg 49%
    22:00 +36°C° 0 mm 2 mps 729 mmHg 49%
    23:00 +36°C° 0 mm 2 mps 729 mmHg 49%

    21 July, Sunday

    Time Temperature Precipitation Wind Pressure Humidity
    00:00 +35°C° 0 mm 1 mps 729 mmHg 50%
    01:00 +35°C° 0 mm 1 mps 729 mmHg 50%
    02:00 +35°C° 0 mm 1 mps 729 mmHg 51%
    03:00 +34°C° 0 mm 1 mps 729 mmHg 52%
    04:00 +34°C° 0 mm 1 mps 729 mmHg 53%
    05:00 +34°C° 0 mm 1 mps 729 mmHg 54%
    06:00 +35°C° 0 mm 1 mps 729 mmHg 50%
    07:00 +36°C° 0 mm 1 mps 730 mmHg 47%
    08:00 +39°C° 0 mm 2 mps 730 mmHg 44%
    09:00 +40°C° 0 mm 2 mps 730 mmHg 40%
    10:00 +42°C° 0 mm 3 mps 730 mmHg 36%
    11:00 +44°C° 0 mm 3 mps 730 mmHg 32%
    12:00 +44°C° 0 mm 4 mps 729 mmHg 32%
    13:00 +44°C° 0 mm 4 mps 729 mmHg 32%
    14:00 +44°C° 0 mm 4 mps 728 mmHg 32%
    15:00 +44°C° 0 mm 4 mps 728 mmHg 32%
    16:00 +44°C° 0 mm 4 mps 728 mmHg 32%
    17:00 +44°C° 0 mm 4 mps 727 mmHg 32%
    18:00 +42°C° 0 mm 4 mps 727 mmHg 34%
    19:00 +40°C° 0 mm 3 mps 727 mmHg 35%
    20:00 +39°C° 0 mm 3 mps 727 mmHg 36%
    21:00 +39°C° 0 mm 3 mps 728 mmHg 37%
    22:00 +38°C° 0 mm 2 mps 728 mmHg 38%
    23:00 +38°C° 0 mm 2 mps 728 mmHg 39%

    22 July, Monday

    Time Temperature Precipitation Wind Pressure Humidity
    00:00 +38°C° 0 mm 2 mps 728 mmHg 40%
    01:00 +36°C° 0 mm 1 mps 727 mmHg 41%
    02:00 +36°C° 0 mm 1 mps 727 mmHg 42%
    03:00 +36°C° 0 mm 1 mps 727 mmHg 42%
    04:00 +36°C° 0 mm 1 mps 727 mmHg 42%
    05:00 +35°C° 0 mm 1 mps 728 mmHg 43%
    06:00 +37°C° 0 mm 2 mps 728 mmHg 41%
    07:00 +38°C° 0 mm 3 mps 729 mmHg 39%
    08:00 +39°C° 0 mm 3 mps 729 mmHg 38%
    09:00 +41°C° 0 mm 4 mps 729 mmHg 34%
    10:00 +44°C° 0 mm 6 mps 729 mmHg 31%
    11:00 +45°C° 0 mm 7 mps 729 mmHg 28%
    12:00 +45°C° 0 mm 7 mps 728 mmHg 27%
    13:00 +46°C° 0 mm 7 mps 728 mmHg 26%
    14:00 +46°C° 0 mm 7 mps 727 mmHg 25%
    15:00 +46°C° 0 mm 6 mps 727 mmHg 26%
    16:00 +46°C° 0 mm 6 mps 726 mmHg 27%
    17:00 +45°C° 0 mm 5 mps 726 mmHg 28%
    18:00 +43°C° 0 mm 4 mps 726 mmHg 30%
    19:00 +40°C° 0 mm 3 mps 726 mmHg 32%
    20:00 +39°C° 0 mm 2 mps 726 mmHg 35%
    21:00 +38°C° 0 mm 2 mps 726 mmHg 35%
    22:00 +38°C° 0 mm 2 mps 726 mmHg 35%
    23:00 +38°C° 0 mm 2 mps 727 mmHg 36%
    Show more